カタログに戻る

NIMBUS 2 DEB

運用中SSO
NORAD 59973·DEBRIS·🇺🇸 United States

打ち上げ May 15, 1966 から Vandenberg Space Force Base

Loading…

次のパス (今後24時間)

TLE

最新Source: Space-Track

元期: Sep 11, 2026, 04:40 UTC

1 59973U 66040CC  26254.19510733  .00001113  00000-0  20214-2 0  9994
2 59973 100.2559  66.6623 0045920 350.3178   9.7062 13.42990060427598

AllMySatでNIMBUS 2 DEBをリアルタイム追跡

Download on the App Store